Time,TemperatureF,DewpointF,PressureIn,WindDirection,WindDirectionDegrees,WindSpeedMPH,WindSpeedGustMPH,Humidity,HourlyPrecipIn,Conditions,Clouds,dailyrainin,SolarRadiationWatts/m^2,SoftwareType,DateUTC
2013-01-15 11:30:00,38.7,34.6,30.10,NNW,337,7.0,12.0,85,0.00,,,0.00,77,Wunderground v.1.15,2013-01-15 17:30:00,
2013-01-15 11:35:00,38.7,34.6,30.10,NNE,26,7.0,12.0,85,0.00,,,0.00,76,Wunderground v.1.15,2013-01-15 17:35:00,
2013-01-15 11:40:00,38.7,34.6,30.10,North,5,7.0,7.0,85,0.00,,,0.00,95,Wunderground v.1.15,2013-01-15 17:40:00,
2013-01-15 11:45:00,38.6,34.5,30.10,NNW,340,8.0,8.0,85,0.00,,,0.00,79,Wunderground v.1.15,2013-01-15 17:45:00,
2013-01-15 11:50:00,38.7,34.6,30.10,NNW,339,7.0,7.0,85,0.00,,,0.00,86,Wunderground v.1.15,2013-01-15 17:50:00,
2013-01-15 11:55:00,38.8,34.7,30.10,NNW,339,6.0,10.0,85,0.00,,,0.00,77,Wunderground v.1.15,2013-01-15 17:55:00,
2013-01-15 12:00:00,38.8,34.7,30.09,NNW,330,7.0,7.0,85,0.00,,,0.00,70,Wunderground v.1.15,2013-01-15 18:00:00,
2013-01-15 12:05:00,38.8,34.7,30.09,NW,314,7.0,9.0,85,0.00,,,0.00,56,Wunderground v.1.15,2013-01-15 18:05:00,
2013-01-15 12:10:00,38.9,34.8,30.09,NNW,338,5.0,6.0,85,0.00,,,0.00,60,Wunderground v.1.15,2013-01-15 18:10:00,
2013-01-15 12:20:00,38.8,35.8,30.08,NNW,339,9.0,9.0,89,0.00,,,0.00,65,Wunderground v.1.15,2013-01-15 18:20:00,
2013-01-15 12:25:00,38.8,34.4,30.08,NW,308,7.0,9.0,84,0.00,,,0.00,67,Wunderground v.1.15,2013-01-15 18:25:00,
2013-01-15 12:35:00,38.7,34.3,30.08,NW,318,8.0,9.0,84,0.00,,,0.00,60,Wunderground v.1.15,2013-01-15 18:35:00,
2013-01-15 12:40:00,38.6,34.2,30.08,NW,322,8.0,14.0,84,0.00,,,0.00,77,Wunderground v.1.15,2013-01-15 18:40:00,
2013-01-15 12:45:00,38.5,34.1,30.07,NNW,340,10.0,14.0,84,0.00,,,0.00,98,Wunderground v.1.15,2013-01-15 18:45:00,
2013-01-15 12:50:00,38.6,34.2,30.07,NW,315,10.0,10.0,84,0.00,,,0.00,102,Wunderground v.1.15,2013-01-15 18:50:00,
2013-01-15 12:55:00,38.6,34.2,30.07,NNW,338,9.0,10.0,84,0.00,,,0.00,88,Wunderground v.1.15,2013-01-15 18:55:00,
2013-01-15 13:00:00,38.6,34.2,30.07,NW,326,9.0,16.0,84,0.00,,,0.00,105,Wunderground v.1.15,2013-01-15 19:00:00,
2013-01-15 13:05:00,38.5,34.1,30.07,WNW,301,10.0,16.0,84,0.00,,,0.00,98,Wunderground v.1.15,2013-01-15 19:05:00,
2013-01-15 13:10:00,38.4,33.7,30.07,NNW,339,11.0,12.0,83,0.00,,,0.00,86,Wunderground v.1.15,2013-01-15 19:10:00,
2013-01-15 13:15:00,38.5,34.1,30.06,NNW,335,9.0,12.0,84,0.00,,,0.00,100,Wunderground v.1.15,2013-01-15 19:15:00,
2013-01-15 13:20:00,38.5,33.8,30.06,NW,315,9.0,9.0,83,0.00,,,0.00,151,Wunderground v.1.15,2013-01-15 19:20:00,
2013-01-15 13:30:00,38.8,34.1,30.05,North,360,8.0,8.0,83,0.00,,,0.00,102,Wunderground v.1.15,2013-01-15 19:30:00,
2013-01-15 13:40:00,38.9,33.9,30.05,NNW,337,9.0,9.0,82,0.00,,,0.00,86,Wunderground v.1.15,2013-01-15 19:40:00,
2013-01-15 13:45:00,38.9,33.9,30.06,NW,325,8.0,9.0,82,0.00,,,0.00,79,Wunderground v.1.15,2013-01-15 19:45:00,
2013-01-15 13:50:00,39.1,34.1,30.06,NNW,339,8.0,8.0,82,0.00,,,0.00,88,Wunderground v.1.15,2013-01-15 19:50:00,
2013-01-15 13:55:00,39.1,34.1,30.06,NNW,337,9.0,9.0,82,0.00,,,0.00,81,Wunderground v.1.15,2013-01-15 19:55:00,
2013-01-15 14:00:00,39.1,34.1,30.06,NNW,338,9.0,9.0,82,0.00,,,0.00,88,Wunderground v.1.15,2013-01-15 20:00:00,
2013-01-15 14:05:00,39.1,34.1,30.06,NNW,339,8.0,12.0,82,0.00,,,0.00,156,Wunderground v.1.15,2013-01-15 20:05:00,
2013-01-15 14:15:00,39.4,34.1,30.06,NNW,339,9.0,10.0,81,0.00,,,0.00,137,Wunderground v.1.15,2013-01-15 20:15:00,
2013-01-15 14:20:00,39.5,34.2,30.06,NNW,339,8.0,8.0,81,0.00,,,0.00,113,Wunderground v.1.15,2013-01-15 20:20:00,
2013-01-15 14:25:00,39.5,33.8,30.06,NNE,15,8.0,12.0,80,0.00,,,0.00,107,Wunderground v.1.15,2013-01-15 20:25:00,
2013-01-15 14:30:00,39.5,34.2,30.06,North,360,9.0,9.0,81,0.00,,,0.00,102,Wunderground v.1.15,2013-01-15 20:30:00,
2013-01-15 14:35:00,39.6,33.9,30.06,NW,310,9.0,11.0,80,0.00,,,0.00,105,Wunderground v.1.15,2013-01-15 20:35:00,
2013-01-15 14:40:00,39.6,33.9,30.06,NW,326,9.0,9.0,80,0.00,,,0.00,125,Wunderground v.1.15,2013-01-15 20:40:00,
2013-01-15 14:45:00,39.7,34.0,30.07,NNW,340,8.0,9.0,80,0.00,,,0.00,91,Wunderground v.1.15,2013-01-15 20:45:00,
2013-01-15 14:50:00,39.8,34.1,30.07,North,360,7.0,7.0,80,0.00,,,0.00,100,Wunderground v.1.15,2013-01-15 20:50:00,
2013-01-15 14:55:00,40.0,34.3,30.07,NNE,13,6.0,9.0,80,0.00,,,0.00,134,Wunderground v.1.15,2013-01-15 20:55:00,
2013-01-15 15:05:00,40.2,34.5,30.06,NE,45,8.0,13.0,80,0.00,,,0.00,118,Wunderground v.1.15,2013-01-15 21:05:00,
2013-01-15 15:10:00,40.2,34.5,30.06,NW,317,9.0,9.0,80,0.00,,,0.00,65,Wunderground v.1.15,2013-01-15 21:10:00,
2013-01-15 15:15:00,40.1,34.4,30.07,NW,319,8.0,14.0,80,0.00,,,0.00,74,Wunderground v.1.15,2013-01-15 21:15:00,
2013-01-15 15:20:00,40.1,34.4,30.07,NNW,338,9.0,12.0,80,0.00,,,0.00,98,Wunderground v.1.15,2013-01-15 21:20:00,
2013-01-15 15:25:00,40.1,34.4,30.07,North,5,10.0,12.0,80,0.00,,,0.00,130,Wunderground v.1.15,2013-01-15 21:25:00,
2013-01-15 15:30:00,40.4,34.7,30.05,NNE,14,10.0,10.0,80,0.00,,,0.00,127,Wunderground v.1.15,2013-01-15 21:30:00,
2013-01-15 15:35:00,40.5,34.5,30.05,North,10,8.0,10.0,79,0.00,,,0.00,91,Wunderground v.1.15,2013-01-15 21:35:00,
2013-01-15 15:40:00,40.5,34.5,30.05,North,360,8.0,13.0,79,0.00,,,0.00,102,Wunderground v.1.15,2013-01-15 21:40:00,
2013-01-15 15:50:00,40.6,34.6,30.07,North,360,9.0,9.0,79,0.00,,,0.00,105,Wunderground v.1.15,2013-01-15 21:50:00,
2013-01-15 15:55:00,40.8,34.8,30.07,NNW,339,7.0,9.0,79,0.00,,,0.00,90,Wunderground v.1.15,2013-01-15 21:55:00,
2013-01-15 16:00:00,40.9,34.9,30.07,NE,34,7.0,7.0,79,0.00,,,0.00,118,Wunderground v.1.15,2013-01-15 22:00:00,
2013-01-15 16:05:00,41.0,34.7,30.07,NNW,338,9.0,15.0,78,0.00,,,0.00,107,Wunderground v.1.15,2013-01-15 22:05:00,
2013-01-15 16:15:00,41.1,34.8,30.08,North,9,8.0,9.0,78,0.00,,,0.00,76,Wunderground v.1.15,2013-01-15 22:15:00,
2013-01-15 16:20:00,41.1,34.8,30.08,North,11,8.0,8.0,78,0.00,,,0.00,74,Wunderground v.1.15,2013-01-15 22:20:00,
2013-01-15 16:25:00,41.2,34.9,30.08,NNW,331,8.0,9.0,78,0.00,,,0.00,67,Wunderground v.1.15,2013-01-15 22:25:00,
2013-01-15 16:35:00,41.2,34.9,30.08,NW,321,9.0,9.0,78,0.00,,,0.00,53,Wunderground v.1.15,2013-01-15 22:35:00,
2013-01-15 16:40:00,41.2,34.9,30.08,NW,314,8.0,8.0,78,0.00,,,0.00,42,Wunderground v.1.15,2013-01-15 22:40:00,
2013-01-15 16:45:00,41.0,34.3,30.10,North,9,8.0,8.0,77,0.00,,,0.00,51,Wunderground v.1.15,2013-01-15 22:45:00,
2013-01-15 16:50:00,40.9,34.2,30.10,NNW,334,9.0,9.0,77,0.00,,,0.00,54,Wunderground v.1.15,2013-01-15 22:50:00,
2013-01-15 16:55:00,40.8,34.5,30.10,NNW,339,8.0,10.0,78,0.00,,,0.00,53,Wunderground v.1.15,2013-01-15 22:55:00,
2013-01-15 17:00:00,40.7,34.4,30.10,NNW,333,9.0,14.0,78,0.00,,,0.00,42,Wunderground v.1.15,2013-01-15 23:00:00,
2013-01-15 17:05:00,40.7,34.4,30.10,NNW,331,9.0,14.0,78,0.00,,,0.00,35,Wunderground v.1.15,2013-01-15 23:05:00,
2013-01-15 17:10:00,40.8,34.5,30.10,NW,322,8.0,16.0,78,0.00,,,0.00,42,Wunderground v.1.15,2013-01-15 23:10:00,
2013-01-15 17:15:00,40.9,34.2,30.12,NNW,339,9.0,16.0,77,0.00,,,0.00,39,Wunderground v.1.15,2013-01-15 23:15:00,
2013-01-15 17:20:00,40.9,34.2,30.12,NNW,336,10.0,14.0,77,0.00,,,0.00,26,Wunderground v.1.15,2013-01-15 23:20:00,
2013-01-15 17:25:00,40.8,34.1,30.12,North,360,9.0,14.0,77,0.00,,,0.00,19,Wunderground v.1.15,2013-01-15 23:25:00,
2013-01-15 17:30:00,40.8,34.1,30.12,NW,325,8.0,8.0,77,0.00,,,0.00,14,Wunderground v.1.15,2013-01-15 23:30:00,
2013-01-15 17:35:00,40.9,34.2,30.12,NW,319,7.0,12.0,77,0.00,,,0.00,11,Wunderground v.1.15,2013-01-15 23:35:00,
2013-01-15 17:40:00,40.9,34.2,30.12,NNW,328,9.0,9.0,77,0.00,,,0.00,7,Wunderground v.1.15,2013-01-15 23:40:00,
2013-01-15 17:45:00,40.9,34.2,30.12,NNW,331,10.0,10.0,77,0.00,,,0.00,7,Wunderground v.1.15,2013-01-15 23:45:00,
2013-01-15 17:50:00,40.8,34.1,30.12,North,360,11.0,12.0,77,0.00,,,0.00,5,Wunderground v.1.15,2013-01-15 23:50:00,
2013-01-15 17:55:00,40.7,34.0,30.12,NW,323,10.0,12.0,77,0.00,,,0.00,0,Wunderground v.1.15,2013-01-15 23:55:00,
2013-01-15 18:00:00,40.6,33.6,30.12,NNW,334,9.0,10.0,76,0.00,,,0.00,0,Wunderground v.1.15,2013-01-16 00:00:00,
2013-01-15 18:05:00,40.6,33.6,30.12,NW,326,8.0,11.0,76,0.00,,,0.00,0,Wunderground v.1.15,2013-01-16 00:05:00,
2013-01-15 18:10:00,40.4,33.4,30.12,NNW,327,8.0,8.0,76,0.00,,,0.00,0,Wunderground v.1.15,2013-01-16 00:10:00,
2013-01-15 18:15:00,40.4,33.4,30.13,North,360,9.0,9.0,76,0.00,,,0.00,0,Wunderground v.1.15,2013-01-16 00:15:00,
2013-01-15 18:20:00,40.3,33.3,30.13,NNW,329,8.0,8.0,76,0.00,,,0.00,0,Wunderground v.1.15,2013-01-16 00:20:00,
2013-01-15 18:30:00,40.1,33.1,30.13,North,11,8.0,8.0,76,0.00,,,0.00,0,Wunderground v.1.15,2013-01-16 00:30:00,
2013-01-15 18:35:00,40.0,33.0,30.13,North,9,9.0,9.0,76,0.00,,,0.00,0,Wunderground v.1.15,2013-01-16 00:35:00,
2013-01-15 18:40:00,39.9,32.6,30.13,NNE,18,9.0,14.0,75,0.00,,,0.00,0,Wunderground v.1.15,2013-01-16 00:40:00,
2013-01-15 18:45:00,39.8,32.5,30.12,NNW,340,9.0,14.0,75,0.00,,,0.00,0,Wunderground v.1.15,2013-01-16 00:45:00,
2013-01-15 18:50:00,39.7,32.1,30.12,North,5,9.0,9.0,74,0.00,,,0.00,0,Wunderground v.1.15,2013-01-16 00:50:00,
2013-01-15 19:00:00,39.4,31.8,30.12,NNW,333,7.0,10.0,74,0.00,,,0.00,0,Wunderground v.1.15,2013-01-16 01:00:00,
2013-01-15 19:05:00,39.3,32.0,30.12,NNW,332,8.0,11.0,75,0.00,,,0.00,0,Wunderground v.1.15,2013-01-16 01:05:00,
2013-01-15 19:10:00,39.2,31.9,30.12,NNE,22,9.0,12.0,75,0.00,,,0.00,0,Wunderground v.1.15,2013-01-16 01:10:00,
2013-01-15 19:15:00,39.1,31.8,30.12,NNE,15,8.0,12.0,75,0.00,,,0.00,0,Wunderground v.1.15,2013-01-16 01:15:00,
2013-01-15 19:20:00,39.0,32.1,30.12,NNW,337,6.0,6.0,76,0.00,,,0.00,0,Wunderground v.1.15,2013-01-16 01:20:00,
2013-01-15 19:25:00,38.9,32.0,30.12,NNW,327,6.0,13.0,76,0.00,,,0.00,0,Wunderground v.1.15,2013-01-16 01:25:00,
2013-01-15 19:30:00,38.8,32.2,30.12,NW,311,7.0,7.0,77,0.00,,,0.00,0,Wunderground v.1.15,2013-01-16 01:30:00,
2013-01-15 19:35:00,38.8,32.2,30.12,NNW,329,8.0,12.0,77,0.00,,,0.00,0,Wunderground v.1.15,2013-01-16 01:35:00,
2013-01-15 19:40:00,38.7,32.1,30.12,NW,322,7.0,7.0,77,0.00,,,0.00,0,Wunderground v.1.15,2013-01-16 01:40:00,
2013-01-15 19:45:00,38.6,32.0,30.13,NNW,330,8.0,8.0,77,0.00,,,0.00,0,Wunderground v.1.15,2013-01-16 01:45:00,
2013-01-15 19:50:00,38.6,32.0,30.13,NW,307,8.0,14.0,77,0.00,,,0.00,0,Wunderground v.1.15,2013-01-16 01:50:00,
2013-01-15 19:55:00,38.6,31.7,30.13,NNW,333,7.0,14.0,76,0.00,,,0.00,0,Wunderground v.1.15,2013-01-16 01:55:00,
2013-01-15 20:00:00,38.7,31.8,30.15,NNW,329,7.0,7.0,76,0.00,,,0.00,0,Wunderground v.1.15,2013-01-16 02:00:00,
2013-01-15 20:05:00,38.6,31.7,30.15,NW,321,6.0,7.0,76,0.00,,,0.00,0,Wunderground v.1.15,2013-01-16 02:05:00,
2013-01-15 20:10:00,38.6,31.4,30.15,NNW,340,7.0,7.0,75,0.00,,,0.00,0,Wunderground v.1.15,2013-01-16 02:10:00,
2013-01-15 20:15:00,38.6,31.0,30.15,North,5,9.0,9.0,74,0.00,,,0.00,0,Wunderground v.1.15,2013-01-16 02:15:00,
2013-01-15 20:20:00,38.7,31.1,30.15,NNW,327,9.0,9.0,74,0.00,,,0.00,0,Wunderground v.1.15,2013-01-16 02:20:00,
2013-01-15 20:25:00,38.6,30.7,30.15,NW,325,9.0,12.0,73,0.00,,,0.00,0,Wunderground v.1.15,2013-01-16 02:25:00,
2013-01-15 20:30:00,38.6,30.7,30.16,NW,321,9.0,10.0,73,0.00,,,0.00,0,Wunderground v.1.15,2013-01-16 02:30:00,
2013-01-15 20:40:00,38.6,30.4,30.16,NW,322,8.0,8.0,72,0.00,,,0.00,0,Wunderground v.1.15,2013-01-16 02:40:00,
2013-01-15 20:45:00,38.5,30.3,30.16,NNW,329,8.0,8.0,72,0.00,,,0.00,0,Wunderground v.1.15,2013-01-16 02:45:00,
2013-01-15 20:50:00,38.5,30.3,30.16,WNW,286,7.0,10.0,72,0.00,,,0.00,0,Wunderground v.1.15,2013-01-16 02:50:00,
2013-01-15 20:55:00,38.4,29.8,30.16,NNW,331,9.0,10.0,71,0.00,,,0.00,0,Wunderground v.1.15,2013-01-16 02:55:00,
2013-01-15 21:05:00,38.4,29.5,30.16,NNW,330,8.0,12.0,70,0.00,,,0.00,0,Wunderground v.1.15,2013-01-16 03:05:00,
2013-01-15 21:15:00,38.3,29.4,30.17,NNW,331,7.0,12.0,70,0.00,,,0.00,0,Wunderground v.1.15,2013-01-16 03:15:00,
2013-01-15 21:25:00,38.2,29.3,30.17,NNW,338,5.0,7.0,70,0.00,,,0.00,0,Wunderground v.1.15,2013-01-16 03:25:00,
2013-01-15 21:30:00,38.2,29.3,30.17,NNW,327,6.0,6.0,70,0.00,,,0.00,0,Wunderground v.1.15,2013-01-16 03:30:00,
2013-01-15 21:35:00,38.1,29.2,30.17,NW,319,6.0,6.0,70,0.00,,,0.00,0,Wunderground v.1.15,2013-01-16 03:35:00,
2013-01-15 21:40:00,38.0,29.1,30.17,NNW,338,6.0,6.0,70,0.00,,,0.00,0,Wunderground v.1.15,2013-01-16 03:40:00,
2013-01-15 21:45:00,38.0,29.1,30.18,NW,311,6.0,6.0,70,0.00,,,0.00,0,Wunderground v.1.15,2013-01-16 03:45:00,
2013-01-15 21:50:00,38.0,29.4,30.18,NW,317,6.0,6.0,71,0.00,,,0.00,0,Wunderground v.1.15,2013-01-16 03:50:00,
2013-01-15 21:55:00,37.9,29.3,30.18,NW,314,5.0,6.0,71,0.00,,,0.00,0,Wunderground v.1.15,2013-01-16 03:55:00,
2013-01-15 22:00:00,37.9,29.3,30.18,NW,314,4.0,4.0,71,0.00,,,0.00,0,Wunderground v.1.15,2013-01-16 04:00:00,
2013-01-15 22:05:00,37.8,29.2,30.18,NNW,327,5.0,5.0,71,0.00,,,0.00,0,Wunderground v.1.15,2013-01-16 04:05:00,
2013-01-15 22:10:00,37.7,29.1,30.18,NW,321,6.0,9.0,71,0.00,,,0.00,0,Wunderground v.1.15,2013-01-16 04:10:00,
2013-01-15 22:15:00,37.7,29.1,30.18,NW,313,6.0,10.0,71,0.00,,,0.00,0,Wunderground v.1.15,2013-01-16 04:15:00,
2013-01-15 22:20:00,37.7,29.1,30.18,NW,318,6.0,6.0,71,0.00,,,0.00,0,Wunderground v.1.15,2013-01-16 04:20:00,
2013-01-15 22:25:00,37.6,29.0,30.18,NW,319,6.0,10.0,71,0.00,,,0.00,0,Wunderground v.1.15,2013-01-16 04:25:00,
2013-01-15 22:30:00,37.5,28.9,30.20,NW,306,6.0,12.0,71,0.00,,,0.00,0,Wunderground v.1.15,2013-01-16 04:30:00,
2013-01-15 22:35:00,37.4,28.9,30.20,NW,317,7.0,12.0,71,0.00,,,0.00,0,Wunderground v.1.15,2013-01-16 04:35:00,
2013-01-15 22:40:00,37.3,28.4,30.20,NW,323,6.0,6.0,70,0.00,,,0.00,0,Wunderground v.1.15,2013-01-16 04:40:00,
2013-01-15 22:45:00,37.3,28.4,30.20,NW,306,6.0,6.0,70,0.00,,,0.00,0,Wunderground v.1.15,2013-01-16 04:45:00,
2013-01-15 22:55:00,37.1,28.2,30.20,NNW,331,6.0,9.0,70,0.00,,,0.00,0,Wunderground v.1.15,2013-01-16 04:55:00,
2013-01-15 23:00:00,37.1,27.9,30.20,NW,321,6.0,13.0,69,0.00,,,0.00,0,Wunderground v.1.15,2013-01-16 05:00:00,
2013-01-15 23:10:00,37.0,27.4,30.20,NNW,334,7.0,10.0,68,0.00,,,0.00,0,Wunderground v.1.15,2013-01-16 05:10:00,
2013-01-15 23:15:00,37.0,27.4,30.20,NW,313,6.0,11.0,68,0.00,,,0.00,0,Wunderground v.1.15,2013-01-16 05:15:00,
2013-01-15 23:20:00,36.9,27.0,30.20,NNW,333,6.0,6.0,67,0.00,,,0.00,0,Wunderground v.1.15,2013-01-16 05:20:00,
2013-01-15 23:30:00,36.8,26.9,30.21,NNW,327,7.0,8.0,67,0.00,,,0.00,0,Wunderground v.1.15,2013-01-16 05:30:00,
2013-01-15 23:35:00,36.8,26.5,30.21,NNW,332,5.0,8.0,66,0.00,,,0.00,0,Wunderground v.1.15,2013-01-16 05:35:00,
2013-01-15 23:45:00,36.7,26.4,30.21,NNW,327,6.0,12.0,66,0.00,,,0.00,0,Wunderground v.1.15,2013-01-16 05:45:00,
2013-01-15 23:50:00,36.6,25.9,30.21,NW,305,7.0,12.0,65,0.00,,,0.00,0,Wunderground v.1.15,2013-01-16 05:50:00,
2013-01-15 23:55:00,36.6,25.9,30.21,NW,315,7.0,12.0,65,0.00,,,0.00,0,Wunderground v.1.15,2013-01-16 05:55:00,